Temperature
25 24 24 24 22 20 22 23 24 23 22 23 23 22 21 20 20 20 19 20 19 19 19 19 19 19 19 19 19 19 19 19 19 19 19 18 18 18 18 18 18 18 18 18 18 18 18 18 18
25 25 24 24 21 20 22 23 23 23 23 23 23 22 20 19 19 20 20 19 19 19 19 19 19 19 19 19 19 19 19 19 19 19 18 18 18 18 18 18 18 18 18 18 18 18 18 18 18
26 25 25 21 21 21 23 24 23 24 24 24 22 21 20 19 20 20 20 20 20 19 19 19 19 19 19 19 19 19 19 19 19 18 18 18 18 18 18 18 18 18 18 18 18 18 18 18 17
26 25 25 22 23 23 24 24 24 24 24 23 22 21 20 20 21 21 20 20 20 20 19 19 19 19 19 19 19 19 19 19 18 18 18 18 18 18 18 18 18 18 18 18 18 18 18 17 17
26 26 22 22 24 24 24 25 25 24 23 23 22 20 20 20 21 21 21 20 20 20 20 19 19 19 19 19 19 19 19 19 18 18 18 18 18 18 18 18 18 18 18 18 18 17 17 17 17
27 23 22 22 24 25 25 25 24 23 23 23 22 20 19 20 21 21 21 20 20 20 20 19 19 19 19 19 19 19 19 18 18 18 18 18 18 18 18 18 18 18 18 18 17 17 17 17 17
26 22 23 24 24 25 25 25 24 23 23 23 22 19 19 20 21 21 20 20 20 20 20 19 19 19 19 19 19 19 18 18 18 18 18 18 18 18 18 18 17 18 17 17 17 17 17 17 17
27 22 24 23 24 25 25 25 25 24 23 23 23 20 20 20 21 20 20 20 20 20 20 19 19 19 19 19 19 18 18 18 18 18 18 18 18 18 18 18 18 17 17 17 17 17 17 17 17
27 22 23 24 25 25 25 25 25 25 24 23 23 23 22 21 21 20 20 20 20 20 19 19 19 19 19 19 18 18 18 18 18 18 18 18 18 18 18 17 17 17 17 17 17 17 17 17 17
26 23 25 25 25 25 25 25 25 24 24 23 23 23 22 21 21 21 20 20 20 20 20 19 19 19 19 19 19 19 18 18 18 18 18 18 18 18 18 17 17 17 17 17 17 17 17 17 17
26 25 25 26 27 27 26 25 25 24 23 23 23 22 22 21 21 21 21 21 20 20 20 20 19 19 19 19 19 19 19 18 18 18 18 18 18 18 18 18 17 17 17 17 17 17 17 17 17
26 26 27 27 27 27 26 25 25 24 25 26 25 24 22 21 21 21 21 21 21 20 20 20 19 19 19 19 19 19 19 18 18 18 18 18 18 18 18 18 18 17 17 17 17 17 17 17 17
27 26 27 28 27 27 26 25 25 25 25 25 24 23 22 22 22 21 21 21 21 20 20 20 20 19 19 19 19 19 19 18 18 18 18 18 18 18 18 18 18 17 17 17 17 17 17 17 17
27 26 27 27 27 27 25 25 25 24 25 24 24 23 22 22 22 21 21 21 21 21 20 20 20 19 19 19 19 19 18 18 18 18 18 18 18 18 18 18 18 17 17 17 17 17 17 17 17
27 26 26 26 27 26 26 25 24 24 24 23 23 23 22 22 22 22 22 21 21 21 20 20 20 19 19 19 19 18 18 18 18 18 18 18 18 18 18 18 18 18 17 18 17 17 17 17 17
26 25 25 26 26 26 26 25 24 24 24 23 22 22 22 22 22 22 22 21 21 21 21 20 20 19 19 19 18 18 18 18 18 18 18 18 18 18 18 18 17 17 18 18 17 17 17 17 17
24 24 25 26 26 25 25 25 24 24 23 22 22 22 22 22 22 22 22 22 21 21 21 20 20 19 19 19 18 18 18 18 18 18 18 18 18 18 17 17 17 17 17 17 17 17 17 17 17
25 25 25 25 25 25 24 24 23 23 23 22 22 22 22 22 22 22 22 22 21 21 21 20 20 19 19 19 18 18 18 18 18 18 18 18 18 18 17 17 17 17 17 17 17 17 17 17 17
25 25 24 25 25 25 24 24 23 22 22 22 22 22 22 22 22 22 22 22 21 21 21 20 20 19 19 19 19 18 18 18 18 18 18 18 18 17 17 17 17 17 17 17 17 17 17 17 17
25 25 25 25 25 25 24 24 23 22 22 22 22 22 22 22 22 22 22 21 21 21 21 20 20 19 19 19 19 18 18 18 18 18 18 18 18 18 17 17 17 17 17 17 17 17 17 17 17
26 25 25 25 25 24 24 24 23 23 23 23 23 23 22 22 23 22 22 22 21 21 21 20 20 19 19 19 19 18 18 18 18 18 18 18 18 17 17 17 17 17 17 17 17 17 17 17 17
25 26 25 25 24 22 24 23 23 22 22 22 22 23 23 23 23 23 22 22 22 21 21 20 20 19 19 19 19 18 18 18 18 18 18 18 18 17 17 17 17 17 17 17 17 17 17 17 17
26 24 24 24 23 22 22 22 22 22 22 22 22 23 23 23 23 23 23 22 22 21 21 20 20 20 19 19 19 19 19 19 18 18 18 18 18 18 17 17 17 17 17 17 17 17 17 17 17
25 23 22 19 20 22 23 22 22 21 22 22 22 23 24 23 23 23 23 22 22 21 21 20 20 20 20 19 19 19 19 19 18 18 18 18 18 17 17 17 17 17 17 17 17 17 17 17 17
24 22 21 22 20 21 21 21 21 22 22 22 22 23 24 24 24 23 23 22 22 21 21 21 20 20 20 19 19 19 19 19 18 18 18 18 18 17 17 17 17 17 17 17 17 17 17 17 17
24 22 21 22 22 20 21 21 22 23 23 23 24 24 24 24 24 24 23 23 22 22 21 21 21 20 20 19 19 19 19 18 18 18 18 18 17 17 17 17 17 17 17 17 17 17 17 17 17
23 22 20 19 20 21 21 21 22 23 22 22 23 23 24 24 24 24 24 23 23 22 22 21 21 20 20 20 19 19 19 18 18 18 18 18 17 17 17 17 17 17 17 17 17 17 17 17 17
23 19 18 19 20 21 22 22 22 24 23 22 21 23 24 24 24 24 24 23 23 22 22 21 21 20 20 20 19 19 19 18 18 18 18 17 17 17 17 17 17 17 17 17 17 16 16 16 17
22 21 18 17 18 20 21 22 22 22 22 22 22 23 25 25 25 24 24 23 23 22 22 21 21 21 20 20 19 19 19 19 18 18 18 17 17 17 17 17 17 17 17 16 16 16 16 16 16
24 21 19 21 20 18 19 21 23 22 22 22 23 24 25 25 25 25 24 23 23 22 22 21 21 21 20 20 20 19 19 19 18 18 18 17 17 17 17 17 17 16 16 16 16 16 16 16 16
Wind_Speed
3 4 3 2 5 6 4 5 2 4 3 3 5 6 7 4 2 4 3 8 9 8 9 13 13 14 14 14 15 15 15 15 15 15 15 14 14 14 13 13 13 13 13 13 13 13 13 13 13
3 3 2 4 6 4 4 4 4 3 5 6 6 6 6 5 4 7 5 7 9 9 10 12 14 14 14 14 14 14 14 14 14 14 13 13 13 13 13 13 12 13 12 12 12 13 13 13 13
4 2 4 5 5 3 1 1 5 5 4 4 5 6 5 4 6 6 6 11 9 8 10 13 14 14 13 13 13 13 13 13 13 12 12 12 12 12 12 12 12 12 12 12 12 12 12 13 12
3 3 5 6 4 1 3 3 5 6 5 6 5 6 4 4 6 7 12 12 10 7 9 12 14 13 13 13 12 12 12 12 12 11 11 11 11 11 12 12 12 12 11 11 11 12 12 12 12
3 5 7 5 3 2 1 3 3 4 3 4 5 5 4 4 9 13 12 11 10 7 8 11 13 13 12 12 12 11 11 11 11 10 10 10 10 11 11 11 11 11 11 11 11 11 12 11 11
4 5 6 2 3 2 1 2 3 5 4 4 5 5 3 4 10 11 10 9 8 7 7 10 12 12 12 11 11 11 10 10 10 9 9 9 10 10 10 10 10 10 11 10 10 11 11 10 10
5 5 4 2 1 0 2 2 4 5 5 4 5 5 3 4 7 10 9 8 6 6 6 7 9 10 11 11 10 10 10 9 9 9 9 9 9 9 9 9 10 10 10 10 10 10 10 9 9
5 5 4 2 3 2 3 3 3 6 5 5 5 8 6 7 10 10 9 7 6 5 4 4 6 7 8 9 10 9 9 9 9 8 9 9 8 8 8 8 9 9 9 9 9 9 9 9 8
4 5 2 4 5 3 4 4 2 4 6 3 3 5 8 15 14 12 9 6 6 6 3 3 4 6 6 7 8 8 8 8 8 7 8 7 7 6 6 7 7 8 8 8 8 7 8 8 7
5 3 5 5 6 6 6 5 6 5 5 3 5 8 15 16 15 13 11 11 9 8 6 4 4 4 5 6 6 6 5 5 5 5 6 6 6 5 5 5 6 7 7 7 7 7 7 7 6
3 3 3 2 4 6 7 5 5 8 4 6 10 15 18 16 14 13 12 10 10 9 8 7 6 5 5 3 5 4 4 4 4 5 5 6 5 4 4 3 4 4 5 5 6 6 5 5 5
1 2 2 1 3 6 7 6 4 6 6 7 14 19 19 17 16 15 13 11 9 9 8 7 6 5 5 4 4 4 4 3 3 4 5 5 3 2 2 3 3 3 4 4 4 4 4 4 4
2 3 2 2 5 5 7 4 4 2 4 11 14 16 16 16 14 11 10 10 9 9 8 7 7 6 5 5 4 4 4 4 4 4 5 5 4 2 2 1 2 2 2 2 2 3 2 3 3
2 2 2 3 4 3 6 3 3 2 8 12 14 14 14 14 12 10 10 10 11 11 10 8 8 7 6 4 3 3 5 5 5 5 6 6 5 4 3 2 1 1 1 1 2 2 2 2 2
2 4 5 3 3 3 6 3 2 4 10 11 11 12 12 11 11 12 12 11 11 10 9 9 9 6 6 6 5 4 5 5 4 5 6 7 6 5 4 2 2 1 2 2 2 2 2 1 1
5 5 3 4 1 2 6 4 4 6 10 10 10 11 11 10 10 10 11 10 10 9 9 9 9 8 7 5 4 4 5 5 5 6 7 8 8 7 5 3 2 3 3 2 2 1 1 1 1
7 3 2 5 0 2 4 5 4 6 10 10 10 9 9 8 8 8 9 9 10 10 10 10 8 8 7 5 4 4 4 5 5 6 6 7 8 8 6 4 3 4 3 2 2 1 1 1 1
2 2 3 4 3 2 3 4 3 7 9 9 8 7 8 9 10 8 8 8 8 9 9 9 7 7 6 4 3 2 2 2 4 5 6 7 8 8 7 4 4 4 2 2 2 2 1 1 1
2 1 4 4 2 2 3 4 4 6 7 7 8 8 8 8 6 6 7 8 8 8 8 9 9 7 7 4 4 3 3 2 2 4 6 7 7 8 7 4 4 4 3 4 3 2 2 1 2
2 1 2 3 3 2 1 3 2 5 8 9 10 10 9 7 6 7 7 8 9 9 9 9 9 9 8 5 4 3 3 2 2 2 4 6 7 8 7 5 4 4 3 3 4 3 2 2 2
1 3 3 2 3 5 3 6 2 3 4 5 6 7 7 9 9 8 8 9 9 10 10 10 10 9 8 6 4 3 2 1 1 2 2 4 6 7 6 6 5 4 4 4 4 4 4 3 2
4 4 4 3 3 3 3 2 7 4 4 6 7 7 8 8 8 8 9 9 10 9 8 8 9 9 8 8 6 6 5 4 5 3 3 3 4 5 6 6 6 5 4 4 5 5 4 4 3
4 2 3 3 4 3 4 1 8 3 5 8 8 9 9 9 9 10 10 9 8 8 8 7 8 8 7 8 8 7 5 4 2 2 2 3 2 4 5 6 5 5 4 5 5 4 5 4 4
5 7 8 7 5 2 2 1 7 5 7 6 6 8 8 8 9 8 7 7 6 7 7 7 8 7 7 8 8 7 7 6 4 3 3 3 2 2 3 5 5 5 4 5 5 5 5 5 4
5 6 5 6 5 5 4 2 9 8 8 8 7 7 7 8 8 8 8 8 8 9 9 8 8 7 7 7 7 7 7 7 6 5 4 3 2 2 4 3 3 3 4 4 4 4 4 5 5
5 9 8 5 5 5 4 5 8 7 6 5 5 5 6 7 7 9 10 9 9 9 9 9 9 8 7 8 7 6 6 5 4 4 4 4 4 3 3 3 3 3 3 3 3 3 4 4 5
6 4 7 7 3 0 6 8 9 3 2 1 3 5 7 8 8 8 8 9 9 9 9 10 9 8 8 7 7 6 5 5 4 4 3 3 3 2 2 2 2 2 2 2 2 2 3 3 3
5 9 7 7 6 2 5 6 5 7 6 4 5 7 7 7 7 8 8 8 8 8 8 8 8 8 7 7 6 5 5 5 4 3 3 3 3 2 2 2 2 2 2 2 2 2 2 2 3
5 5 6 6 6 7 3 8 8 9 8 8 9 8 8 9 9 8 7 7 7 7 7 7 7 7 6 6 6 5 4 4 4 3 3 3 2 2 2 2 2 1 1 1 2 2 2 2 2
5 8 8 6 4 5 5 8 7 8 8 7 8 7 7 8 7 7 7 7 7 8 8 8 7 7 6 6 5 5 4 4 4 3 3 3 2 2 2 2 2 2 1 1 1 1 1 1 2
Wind_Direction
195 144 138 94 56 47 26 354 39 68 65 68 92 92 99 86 118 137 122 134 131 133 140 136 131 126 121 118 116 114 113 113 114 114 114 115 116 116 117 115 114 114 113 113 113 113 115 116 119
150 146 98 62 73 58 355 349 60 74 130 123 87 80 78 71 74 107 126 138 131 134 136 137 134 129 125 122 120 118 117 116 116 116 116 117 118 118 118 116 115 114 113 114 115 116 115 115 117
159 137 77 66 77 127 143 32 112 101 99 92 82 68 79 109 125 138 150 138 125 127 136 142 137 133 129 126 124 122 120 119 119 119 119 119 120 120 119 118 117 115 114 114 116 118 117 116 117
118 57 53 63 58 233 175 168 137 116 68 58 88 72 66 101 138 141 138 135 127 126 138 145 139 136 133 131 128 126 125 124 124 123 123 122 122 122 122 120 117 114 113 113 116 117 117 116 116
68 74 56 41 8 358 131 156 134 100 82 70 84 85 55 43 109 127 135 136 135 133 140 145 141 139 136 134 133 131 129 127 126 126 125 125 124 124 124 121 118 116 113 111 113 116 118 116 115
59 65 73 42 355 23 110 135 107 87 90 88 87 90 54 98 121 133 133 133 134 134 135 143 144 143 141 140 138 134 132 130 128 126 125 125 125 124 125 124 121 118 114 111 111 112 115 116 115
96 86 115 143 116 116 173 124 119 120 114 118 116 100 91 128 132 129 125 124 124 125 128 137 146 148 147 145 143 140 137 133 131 129 126 126 126 127 127 124 123 120 116 113 111 112 113 113 112
117 98 91 144 166 212 158 122 128 128 124 121 122 138 169 166 134 120 116 118 121 121 123 131 135 140 143 147 147 144 141 138 135 133 131 129 127 127 126 123 123 122 120 119 117 113 110 107 106
92 75 152 198 182 198 155 135 128 97 116 125 121 149 153 139 132 127 128 134 147 154 137 132 131 132 138 147 153 150 148 145 140 137 131 117 103 106 114 125 128 126 125 124 121 115 112 104 101
81 118 220 207 183 168 160 151 152 123 126 106 81 98 128 140 146 151 160 167 170 173 175 163 149 147 150 158 144 140 137 135 130 122 114 106 102 107 113 123 130 128 126 122 118 114 109 102 98
108 181 236 215 167 147 149 149 143 135 178 189 160 148 148 153 160 168 174 176 179 176 181 175 167 165 164 152 141 137 136 133 130 129 123 114 102 94 87 84 90 92 95 89 92 91 97 106 111
92 264 207 190 135 137 152 149 145 173 209 172 155 153 156 164 174 179 179 180 179 178 187 181 170 171 174 164 161 154 153 148 139 139 139 130 116 101 88 79 77 76 83 88 86 91 97 106 120
16 316 336 109 117 132 124 137 155 195 111 122 136 152 165 175 183 185 180 178 177 184 189 184 178 183 177 174 180 173 172 168 163 160 167 164 155 150 134 101 80 77 97 109 103 103 107 114 126
318 346 354 70 95 115 126 112 107 172 127 131 148 165 175 181 182 178 178 183 186 190 191 184 188 187 177 178 182 176 179 180 176 180 186 184 180 173 162 151 138 113 123 141 131 126 124 125 133
17 38 24 29 82 122 110 76 200 173 141 146 163 173 180 185 184 188 187 189 191 190 187 187 189 182 181 184 186 181 182 184 186 193 196 193 190 185 179 172 180 186 162 137 117 105 102 121 128
46 54 20 307 65 116 121 214 223 158 153 162 174 180 186 192 194 194 187 188 188 184 183 188 190 183 185 179 176 174 178 184 194 200 203 202 196 191 185 184 197 192 169 154 141 131 119 130 151
33 40 302 308 327 130 153 223 210 165 165 176 184 186 187 190 200 199 190 186 184 185 181 180 182 178 177 166 167 170 178 189 198 202 206 207 200 195 192 198 204 187 171 178 182 154 163 182 194
315 320 307 291 290 137 187 234 197 176 180 188 190 191 189 197 205 194 186 179 179 180 176 176 173 170 161 150 143 145 163 184 193 202 210 206 203 198 196 203 204 182 172 189 187 177 165 174 185
194 241 286 279 278 140 213 241 220 185 188 195 201 201 196 205 202 190 182 174 170 171 172 175 173 171 165 162 160 167 189 193 195 207 210 203 201 198 195 202 193 185 192 201 192 175 177 191 154
182 305 304 325 14 86 295 300 261 201 211 207 205 205 198 190 187 189 179 175 176 181 181 180 180 178 183 178 163 164 165 188 197 205 204 207 202 201 203 197 197 195 196 194 191 180 171 186 171
281 204 220 222 15 37 45 342 316 262 238 227 212 207 201 194 195 190 183 184 182 187 187 189 185 182 185 170 143 123 107 100 173 210 213 211 205 206 207 201 198 199 196 206 207 191 184 196 201
273 252 191 156 85 354 39 302 293 279 271 237 219 205 206 198 192 188 188 190 190 191 182 183 181 180 181 172 172 169 177 191 204 200 207 212 210 211 208 203 201 198 199 208 215 202 197 188 204
210 45 93 86 109 47 24 122 290 317 267 249 227 214 208 194 189 190 191 192 186 177 176 178 173 178 179 178 182 182 187 192 187 185 204 218 220 218 211 203 200 202 208 213 214 202 202 201 201
131 69 52 47 66 35 308 179 281 252 236 252 226 212 202 185 183 187 185 172 169 166 169 170 172 180 179 181 186 189 190 185 180 193 206 216 219 233 226 213 204 206 209 213 215 210 206 210 211
97 88 35 11 15 259 289 245 253 258 248 238 230 219 193 178 178 179 178 177 176 174 175 174 176 183 181 183 191 193 194 189 193 200 205 206 215 234 235 224 212 211 211 211 210 208 214 212 214
156 136 154 185 214 275 319 249 257 269 276 247 216 198 175 176 178 183 186 185 183 178 174 175 180 184 181 187 194 190 189 191 200 201 200 207 218 227 226 210 206 203 203 213 208 213 221 215 217
132 148 152 129 146 312 292 293 303 295 316 207 174 169 183 186 184 186 183 181 181 180 181 181 179 180 183 188 186 184 186 192 199 199 201 210 212 209 204 198 200 202 197 194 201 219 229 220 221
133 140 104 118 142 223 293 289 262 273 253 228 208 201 198 187 184 184 182 182 183 184 180 174 176 180 181 181 184 187 188 191 194 186 193 200 200 189 184 197 197 203 195 186 199 222 230 214 227
110 102 104 111 144 153 226 269 230 228 228 220 222 214 201 193 191 190 187 181 176 168 165 170 173 172 173 177 179 181 182 177 175 180 192 192 184 176 179 188 181 180 194 189 189 223 223 218 227
166 164 147 149 195 171 174 260 265 237 238 222 223 217 202 194 189 184 178 169 169 169 170 174 175 177 177 174 170 172 167 158 159 169 173 165 159 151 152 145 143 142 140 164 187 230 230 206 219
Height
1492 1491 1492 1494 1498 1511 1516 1509 1503 1503 1505 1505 1506 1508 1510 1514 1518 1524 1522 1522 1525 1527 1529 1531 1532 1534 1535 1536 1537 1538 1539 1540 1540 1541 1542 1543 1544 1545 1546 1547 1548 1549 1550 1551 1552 1553 1554 1555 1556
1492 1493 1495 1495 1509 1527 1521 1508 1506 1505 1505 1506 1508 1510 1512 1515 1516 1518 1520 1524 1527 1529 1530 1532 1534 1535 1537 1538 1539 1540 1541 1542 1543 1543 1544 1545 1546 1547 1548 1549 1550 1551 1552 1553 1554 1555 1556 1557 1558
1494 1494 1496 1501 1515 1524 1518 1509 1506 1506 1507 1507 1510 1512 1514 1516 1518 1519 1522 1525 1528 1530 1532 1534 1536 1537 1538 1539 1541 1542 1543 1544 1544 1545 1546 1547 1548 1549 1550 1551 1552 1553 1554 1555 1555 1556 1557 1559 1560
1495 1497 1499 1508 1516 1513 1509 1507 1506 1507 1508 1509 1511 1514 1517 1520 1520 1522 1524 1526 1529 1532 1534 1536 1537 1539 1540 1541 1542 1543 1544 1545 1546 1547 1548 1549 1550 1550 1552 1553 1554 1554 1555 1556 1557 1558 1559 1560 1562
1496 1497 1508 1519 1515 1509 1506 1507 1508 1508 1510 1511 1512 1516 1520 1522 1523 1524 1526 1529 1531 1533 1536 1538 1539 1541 1542 1543 1544 1545 1546 1547 1548 1549 1550 1550 1551 1552 1553 1554 1555 1556 1557 1558 1559 1560 1561 1562 1563
1497 1500 1520 1526 1517 1510 1508 1508 1509 1510 1512 1513 1515 1518 1522 1523 1525 1526 1528 1531 1533 1535 1537 1539 1541 1542 1544 1545 1546 1547 1548 1549 1549 1550 1551 1552 1553 1554 1555 1556 1557 1558 1559 1560 1561 1562 1563 1564 1565
1499 1507 1518 1519 1518 1513 1510 1509 1510 1511 1513 1515 1516 1519 1522 1525 1527 1529 1531 1533 1535 1537 1539 1541 1543 1544 1545 1546 1548 1548 1549 1550 1551 1552 1553 1553 1554 1555 1556 1557 1558 1559 1560 1562 1563 1564 1565 1566 1567
1499 1506 1516 1518 1517 1514 1510 1510 1511 1512 1514 1516 1517 1519 1522 1525 1527 1530 1532 1534 1537 1539 1541 1542 1544 1545 1547 1548 1549 1550 1551 1552 1553 1553 1554 1555 1556 1557 1558 1559 1560 1561 1562 1563 1564 1565 1566 1568 1569
1500 1511 1520 1516 1514 1511 1509 1510 1512 1513 1515 1517 1518 1519 1521 1524 1527 1531 1533 1535 1538 1540 1542 1544 1545 1547 1548 1549 1551 1552 1553 1553 1554 1555 1556 1556 1557 1558 1559 1560 1562 1563 1564 1565 1566 1567 1568 1569 1570
1501 1515 1512 1505 1505 1506 1508 1510 1511 1513 1515 1517 1518 1520 1522 1524 1527 1530 1533 1535 1537 1540 1542 1544 1546 1547 1549 1550 1552 1553 1554 1555 1555 1556 1557 1558 1559 1560 1561 1562 1563 1564 1565 1566 1567 1569 1570 1571 1572
1502 1507 1504 1502 1502 1504 1507 1510 1511 1513 1516 1514 1515 1518 1521 1524 1528 1530 1533 1536 1538 1540 1542 1544 1546 1548 1549 1551 1552 1554 1555 1556 1557 1558 1559 1559 1560 1561 1562 1563 1564 1566 1567 1568 1569 1570 1571 1572 1573
1503 1502 1501 1501 1503 1505 1507 1510 1512 1512 1512 1513 1514 1517 1521 1524 1527 1529 1532 1535 1538 1540 1542 1544 1546 1548 1550 1552 1553 1554 1555 1557 1558 1559 1560 1561 1562 1563 1564 1565 1566 1567 1568 1569 1570 1571 1573 1574 1575
1503 1502 1501 1501 1503 1505 1508 1510 1511 1513 1513 1514 1516 1519 1522 1524 1527 1530 1533 1535 1538 1540 1542 1545 1547 1549 1550 1552 1553 1555 1556 1558 1559 1560 1561 1562 1563 1564 1565 1566 1567 1568 1569 1571 1572 1573 1574 1575 1575
1504 1502 1502 1502 1503 1506 1508 1511 1513 1513 1514 1515 1517 1520 1522 1525 1527 1530 1533 1535 1537 1540 1542 1544 1546 1548 1550 1552 1554 1556 1557 1558 1559 1560 1561 1563 1564 1565 1566 1567 1568 1569 1570 1572 1572 1573 1574 1575 1576
1504 1505 1505 1504 1505 1507 1509 1515 1513 1512 1514 1516 1518 1520 1522 1525 1527 1529 1532 1535 1537 1540 1542 1544 1547 1549 1550 1552 1554 1556 1557 1559 1560 1561 1562 1563 1564 1565 1566 1568 1569 1570 1571 1572 1573 1574 1575 1576 1576
1506 1513 1518 1509 1506 1508 1513 1522 1512 1512 1514 1516 1518 1519 1522 1524 1527 1529 1532 1534 1537 1539 1541 1544 1546 1548 1550 1552 1554 1555 1557 1558 1560 1561 1562 1563 1564 1565 1566 1568 1569 1570 1571 1572 1573 1574 1575 1576 1576
1519 1525 1522 1514 1508 1509 1513 1517 1511 1512 1513 1515 1517 1519 1521 1524 1526 1528 1531 1533 1536 1538 1540 1543 1545 1547 1549 1551 1553 1554 1556 1557 1559 1561 1562 1563 1564 1565 1566 1568 1569 1570 1571 1572 1573 1574 1575 1575 1576
1526 1525 1522 1520 1511 1510 1513 1514 1511 1512 1513 1514 1516 1519 1521 1523 1524 1527 1529 1531 1534 1537 1539 1542 1544 1546 1549 1550 1552 1553 1555 1556 1558 1560 1561 1562 1563 1565 1566 1567 1569 1569 1570 1571 1572 1573 1574 1574 1575
1517 1521 1524 1518 1510 1512 1514 1514 1512 1512 1513 1514 1515 1517 1519 1521 1524 1526 1528 1530 1532 1535 1537 1540 1542 1545 1547 1549 1550 1552 1553 1555 1557 1558 1560 1561 1562 1564 1565 1566 1567 1568 1569 1570 1571 1572 1572 1573 1574
1516 1520 1521 1516 1510 1512 1516 1515 1512 1511 1511 1511 1512 1514 1517 1520 1522 1524 1527 1528 1530 1532 1535 1538 1540 1542 1544 1547 1549 1551 1552 1554 1556 1557 1559 1560 1561 1562 1564 1565 1566 1567 1568 1568 1569 1570 1571 1571 1572
1515 1518 1518 1518 1514 1514 1517 1520 1515 1511 1510 1511 1512 1513 1516 1518 1520 1522 1524 1526 1528 1531 1533 1536 1538 1541 1543 1546 1547 1549 1551 1553 1554 1556 1557 1559 1560 1561 1562 1563 1564 1565 1566 1566 1567 1568 1568 1569 1570
1519 1509 1511 1514 1523 1531 1525 1539 1520 1514 1511 1509 1509 1511 1512 1515 1518 1520 1522 1524 1526 1529 1532 1534 1537 1539 1542 1544 1546 1547 1549 1550 1552 1554 1555 1557 1558 1559 1560 1561 1562 1563 1564 1564 1565 1566 1566 1567 1567
1510 1508 1512 1516 1524 1534 1532 1539 1529 1515 1513 1508 1506 1507 1509 1512 1515 1517 1520 1522 1525 1528 1531 1533 1535 1538 1540 1542 1544 1546 1547 1549 1550 1552 1553 1555 1556 1557 1558 1559 1560 1561 1561 1562 1562 1563 1564 1564 1564
1506 1513 1520 1529 1535 1547 1537 1540 1535 1520 1510 1504 1502 1503 1505 1509 1512 1515 1518 1521 1524 1527 1529 1531 1534 1536 1539 1540 1542 1544 1545 1547 1548 1550 1551 1552 1554 1555 1556 1556 1557 1558 1558 1559 1560 1560 1560 1561 1561
1509 1527 1548 1550 1558 1554 1539 1539 1533 1508 1503 1501 1500 1501 1503 1507 1510 1513 1516 1518 1521 1524 1527 1530 1532 1534 1536 1539 1540 1542 1544 1545 1546 1548 1549 1550 1551 1552 1553 1553 1554 1555 1555 1556 1556 1557 1557 1557 1558
1511 1522 1547 1557 1560 1554 1540 1540 1519 1502 1498 1497 1498 1500 1502 1505 1508 1511 1514 1517 1520 1522 1525 1528 1530 1532 1535 1537 1539 1540 1542 1543 1544 1546 1547 1548 1549 1549 1550 1551 1551 1552 1552 1552 1553 1553 1554 1554 1554
1512 1520 1523 1544 1550 1554 1546 1532 1512 1499 1498 1497 1498 1499 1501 1504 1507 1510 1512 1515 1518 1521 1524 1526 1529 1531 1533 1535 1537 1538 1540 1541 1542 1543 1544 1545 1546 1547 1548 1548 1548 1549 1549 1550 1550 1550 1550 1550 1550
1503 1515 1531 1544 1558 1558 1546 1537 1526 1505 1500 1498 1497 1498 1500 1503 1506 1509 1511 1514 1517 1520 1523 1525 1527 1529 1531 1533 1535 1537 1538 1539 1540 1541 1542 1543 1544 1544 1545 1546 1546 1546 1547 1547 1547 1547 1547 1547 1547
1510 1517 1528 1541 1543 1556 1555 1539 1505 1500 1495 1495 1495 1496 1498 1501 1504 1507 1510 1513 1516 1519 1521 1524 1526 1528 1530 1532 1534 1535 1536 1537 1538 1539 1540 1541 1542 1542 1543 1543 1543 1544 1544 1544 1545 1545 1545 1545 1544
1499 1508 1520 1532 1540 1546 1547 1534 1493 1492 1491 1492 1493 1494 1497 1500 1503 1506 1509 1512 1514 1517 1520 1522 1525 1527 1529 1531 1532 1533 1534 1535 1536 1537 1538 1539 1539 1540 1541 1541 1541 1542 1542 1542 1543 1542 1542 1542 1541